Location: Saratoga Springs
(43.0831°N, 73.7850°W)
Time: 14:14:07
(UTC-04:00)

Courier 1B - All Passes

Search period start: 23 April 2024 00:00
Search period end: 03 May 2024 00:00
Orbit: 962 x 1208 km, 28.3° (Epoch: 23 April)

Date Brightness Start Highest point End Pass type
(mag) Time Alt. Az. Time Alt. Az. Time Alt. Az.
23 Apr - 01:20:58 10° SSW 01:25:55 19° SSE 01:30:43 10° ESE visible
23 Apr - 03:13:19 10° SW 03:19:06 25° S 03:24:37 10° SE visible
23 Apr - 05:07:15 10° WSW 05:12:12 20° SSW 05:16:57 10° SSE visible
24 Apr - 00:27:52 10° SSW 00:32:15 16° SSE 00:36:32 10° SE night (unlit)
24 Apr - 02:19:34 10° SW 02:25:24 24° S 02:31:01 10° SE visible
24 Apr - 04:13:08 10° WSW 04:18:35 22° S 04:23:48 10° SE visible
24 Apr - 06:09:00 10° SW 06:11:29 12° SSW 06:13:55 10° S daylight
24 Apr - 23:35:13 10° S 23:38:35 13° SSE 23:41:55 10° SE night (unlit)
25 Apr - 01:25:56 10° SW 01:31:42 23° S 01:37:17 10° ESE visible
25 Apr - 03:19:07 10° WSW 03:24:56 24° S 03:30:29 10° SE visible
25 Apr - 05:13:58 10° SW 05:17:56 15° SSW 05:21:47 10° SSE visible
25 Apr - 22:44:03 10° SSE 22:44:56 10° SSE 22:45:49 10° SSE night (unlit)
26 Apr - 00:32:26 10° SSW 00:37:58 21° SSE 00:43:24 10° ESE night (unlit)
26 Apr - 02:25:12 10° SW 02:31:14 25° S 02:37:02 10° SE visible
26 Apr - 04:19:29 10° WSW 04:24:21 19° SSW 04:29:03 10° SSE visible
26 Apr - 23:39:09 10° SSW 23:44:17 19° SSE 23:49:18 10° ESE night (unlit)
27 Apr - 01:31:23 10° SW 01:37:30 26° S 01:43:26 10° SE visible
27 Apr - 03:25:14 10° WSW 03:30:43 22° SSW 03:36:00 10° SE visible
27 Apr - 05:22:35 10° SW 05:23:36 10° SSW 05:24:37 10° SSW visible
27 Apr - 22:46:11 10° SSW 22:50:35 16° SSE 22:54:58 10° SE visible
28 Apr - 00:37:41 10° SW 00:43:46 25° S 00:49:43 10° ESE night (unlit)
28 Apr - 02:31:08 10° WSW 02:37:02 24° S 02:42:44 10° SE visible
28 Apr - 04:26:32 10° SW 04:30:03 14° SSW 04:33:29 10° S visible
28 Apr - 21:53:44 10° S 21:56:54 13° SSE 22:00:05 10° SE visible
28 Apr - 23:44:07 10° SW 23:50:01 24° S 23:55:51 10° ESE night (unlit)
29 Apr - 01:37:10 10° WSW 01:43:19 26° S 01:49:17 10° SE night (unlit)
29 Apr - 03:31:47 10° WSW 03:36:27 17° SSW 03:40:58 10° SSE visible
29 Apr - 22:50:43 10° SSW 22:56:17 21° SSE 23:01:49 10° ESE visible
30 Apr - 00:43:18 10° SW 00:49:34 26° S 00:55:42 10° SE night (unlit)
30 Apr - 02:37:24 10° WSW 02:42:47 21° SSW 02:48:02 10° SSE visible
30 Apr - 21:57:35 10° SSW 22:02:34 18° SSE 22:07:35 10° ESE visible
30 Apr - 23:49:33 10° SW 23:55:48 26° S 00:01:58 10° ESE visible
01 May - 01:43:14 10° WSW 01:49:05 23° SSW 01:54:48 10° SE night (unlit)
01 May - 03:39:24 10° SW 03:42:05 12° SSW 03:44:45 10° S visible
01 May - 21:04:48 10° S 21:08:54 15° SSE 21:13:01 10° SE visible
01 May - 22:55:57 10° SW 23:02:02 25° S 23:08:08 10° ESE visible
02 May - 00:49:13 10° WSW 00:55:21 25° S 01:01:24 10° SE night (unlit)
02 May - 02:44:14 10° SW 02:48:29 16° SSW 02:52:38 10° SSE night (unlit)
02 May - 20:12:46 10° S 20:15:15 12° SSE 20:17:47 10° SE daylight
02 May - 22:02:31 10° SW 22:08:17 23° SSE 22:14:08 10° ESE visible
